User: anonymous   Login
Location: Boiro
(42.6475°N, 8.8834°W)
Time: 19:22:24
(UTC+01:00)
Language:

Vanguard 1 Rocket - Orbit

View from above orbital plane
View from above orbital plane
View from above satellite
View from above satellite

Ground track
Ground track

The orbit data is extracted from the following two-line orbital elements,

1 00016U 58002A   21338.52520836  .00000162  00000-0  21962-3 0  9992
2 00016  34.2730  49.7045 2027860 333.7742  17.2627 10.48787276515018
Epoch (UTC): 04 December 2021 12:36:18
Eccentricity: 0.2027860
inclination: 34.2730°
perigee height: 650 km
apogee height: 4226 km
right ascension of ascending node: 49.7045°
argument of perigee: 333.7742°
revolutions per day: 10.48787276
mean anomaly at epoch: 17.2627°
orbit number at epoch: 51501

The dashed part of the orbit path shows where the satellite is in the earth's shadow,  

DLR